Location: Oberwangen
(47.4286°N, 8.9679°E)
Time: 06:57:18
(UTC+00:00)

Meteor 2-20 Rocket - Pass Details

Date: 20 June 2021
Orbit: 940 x 959 km, 82.5° (Epoch: 28 July)

Event Time Altitude Azimuth Distance (km) Brightness Sun altitude
Rises 19:57:27 0° 182° (S) 3,612 7.1 -5.1°
Reaches altitude 10° 19:59:56 10° 181° (S) 2,668 6.4 -5.4°
Maximum altitude 20:06:01 77° 97° (E) 977 4.5 -6.1°
Drops below altitude 10° 20:12:07 10° 12° (NNE) 2,674 7.3 -6.8°
Sets 20:14:37 0° 11° (NNE) 3,621 8.0 -7.1°
